Regional Weather Roundup
Issued by NWS

Home | Current Version | Previous Version | Text Only | Print | Product List | Glossary On
Versions: 1 2 3 4 5 6 7 8 9 10 11 12 13 14 15 16 17 18 19 20 21 22 23 24 25 26 27 28 29 30 31 32 33 34 35 36 37 38 39 40 41 42 43 44 45 46 47 48 49 50
000
ASUS43 KLSX 031207
RWRMO

WEATHER SUMMARY FOR MISSOURI
NATIONAL WEATHER SERVICE SPRINGFIELD MO
700 AM CDT FRI JUL 03 2015

NOTE: "FAIR" INDICATES FEW OR NO CLOUDS BELOW 12,000 FEET WITH NO
       SIGNIFICANT WEATHER AND/OR OBSTRUCTIONS TO VISIBILITY.
       CURRENT SKY AND/OR WEATHER CONDITIONS ARE NOT AVAILABLE FOR
       CHILLICOTHE AND FARMINGTON.

MOZ001>031-035>038-043-044-053-054-031300-
...NORTHERN AND WESTERN MISSOURI...

CITY           SKY/WX    TMP DP  RH WIND       PRES   REMARKS
KANSAS CTY INT CLOUDY    65  62  90 NE7       29.95R
6HR MIN TEMP:  64; 6HR MAX TEMP:  67;

KANSAS C DTWN  CLOUDY    67  62  84 NE6       29.94R
6HR MIN TEMP:  67; 6HR MAX TEMP:  71;

LEE`S SUMMIT   CLOUDY    66  61  84 E7        29.94R
6HR MIN TEMP:  66; 6HR MAX TEMP:  68;

ST JOSEPH      CLOUDY    64  59  83 NE6       29.96R
6HR MIN TEMP:  64; 6HR MAX TEMP:  66;

CHILLICOTHE      N/A     63  60  90 CALM      29.97R
6HR MIN TEMP:  61; 6HR MAX TEMP:  66;

KIRKSVILLE     MOSUNNY   62  59  90 N8        29.98R
6HR MIN TEMP:  61; 6HR MAX TEMP:  64; 6HR PCP: TRACE;


$$
MOZ066>068-077>081-088>096-101>105-031300-
...SOUTHWEST MISSOURI...

CITY           SKY/WX    TMP DP  RH WIND       PRES   REMARKS
SPRINGFIELD    CLOUDY    71  69  93 CALM      29.91S FOG
6HR MIN TEMP:  70; 6HR MAX TEMP:  73;

JOPLIN         CLOUDY    70  68  93 CALM      29.92R FOG
6HR MIN TEMP:  67; 6HR MAX TEMP:  72;


$$
MOZ032>034-039>042-045>050-055>058-069>072-031300-
...CENTRAL MISSOURI...

CITY           SKY/WX    TMP DP  RH WIND       PRES   REMARKS
COLUMBIA       CLOUDY    66  62  87 E3        29.94R
6HR MIN TEMP:  66; 6HR MAX TEMP:  67; 6HR PCP: TRACE;

JEFFERSON CITY CLOUDY    67  62  84 NE3       29.93R
6HR MIN TEMP:  66; 6HR MAX TEMP:  69;

ROLLA          CLOUDY    65  63  93 NE5       29.92R
6HR MIN TEMP:  65; 6HR MAX TEMP:  68;

SEDALIA        CLOUDY    67  63  87 E5        29.94S
6HR MIN TEMP:  66; 6HR MAX TEMP:  69;

WHITEMAN AFB   PTSUNNY   66  63  90 NE6       29.92
WARRENSBURG    CLOUDY    64  63  94 NE6       29.93S
OSAGE BEACH    CLOUDY    66  64  94 CALM      29.93R

$$
MOZ051-052-059>065-031300-
...EAST CENTRAL MISSOURI...

CITY           SKY/WX    TMP DP  RH WIND       PRES   REMARKS
ST LOUIS INTL  PTSUNNY   68  62  81 N3        29.91R
6HR MIN TEMP:  67; 6HR MAX TEMP:  70;

SPIRIT OF STL  MOSUNNY   68  64  87 N3        29.91R
6HR MIN TEMP:  66; 6HR MAX TEMP:  69;

ST CHARLES     MOSUNNY   66  63  90 NE5       29.91R
6HR MIN TEMP:  65; 6HR MAX TEMP:  68;


$$
MOZ072>076-082>087-097>100-106>115-031300-
...SOUTH CENTRAL AND SOUTHEAST MISSOURI...

CITY           SKY/WX    TMP DP  RH WIND       PRES   REMARKS
CAPE GIRARDEAU MOSUNNY   70  67  90 N6        29.87R
6HR MIN TEMP:  69; 6HR MAX TEMP:  73; 6HR PCP:  0.25;

FARMINGTON     CLOUDY    66  63  88 N6        29.94R
6HR MIN TEMP:  66; 6HR MAX TEMP:  70;

POPLAR BLUFF   CLOUDY    71  69  93 CALM      29.88R
6HR MIN TEMP:  70; 6HR MAX TEMP:  73; 6HR PCP:  0.23;

WEST PLAINS    SUNNY     69  67  93 CALM      29.92S FOG
6HR MIN TEMP:  67; 6HR MAX TEMP:  71; 6HR PCP: TRACE;


$$



USA.gov is the U.S. government's official web portal to all federal, state and local government web resources and services.